• Processing (Info)

  • MPEC 2012-B76 : 2012 BB62

    The following Minor Planet Electronic Circular may be linked-to from your own Web pages, but must not otherwise be redistributed electronically.

    A form allowing access to any MPEC is at the bottom of this page.


    Read MPEC 2012-B75 Read MPEC 2012-B77


    M.P.E.C. 2012-B76                                Issued 2012 Jan. 27, 21:13 UT
    
         The Minor Planet Electronic Circulars contain information on unusual
             minor planets and routine data on comets.  They are published
       on behalf of Commission 20 of the International Astronomical Union by the
              Minor Planet Center, Smithsonian Astrophysical Observatory,
                              Cambridge, MA 02138, U.S.A.
    
                 Prepared using the Tamkin Foundation Computer Network
    
                                  MPC@CFA.HARVARD.EDU
                URL https://www.minorplanetcenter.net/    ISSN 1523-6714
    
                                       2012 BB62
    
    Observations:
         K12B62B* C2012 01 26.35534 08 20 23.46 +24 18 21.7          21.0 VrEB076G96
         K12B62B  C2012 01 26.36113 08 20 24.72 +24 17 30.0          21.3 VrEB076G96
         K12B62B  C2012 01 26.36693 08 20 26.08 +24 16 37.5          20.9 VrEB076G96
         K12B62B  C2012 01 26.37272 08 20 27.42 +24 15 45.1          20.9 VrEB076G96
         K12B62B  C2012 01 26.43549 08 20 41.85 +24 06 22.4          21.0 VrEB076G96
         K12B62B  C2012 01 26.43607 08 20 42.00 +24 06 16.9          21.6 VrEB076G96
         K12B62B  C2012 01 26.43665 08 20 42.14 +24 06 12.3          21.0 VrEB076G96
         K12B62B  C2012 01 26.43725 08 20 42.28 +24 06 07.4          21.4 VrEB076G96
         K12B62B  C2012 01 27.13899 08 23 48.19 +22 28 08.2          20.4 RoEB076H01
         K12B62B  C2012 01 27.14577 08 23 49.62 +22 27 15.5          20.2 RoEB076H01
         K12B62B  C2012 01 27.15816 08 23 52.20 +22 25 39.2          20.5 RoEB076H01
         K12B62B  C2012 01 27.16219 08 23 53.03 +22 25 07.8          20.2 RoEB076H01
    
    Observer details:
    G96 Mt. Lemmon Survey.  Observer R. E. Hill.  Measurers J. D. Ahern,
        E. C. Beshore, A. Boattini, A. R. Gibbs, A. D. Grauer, R. E. Hill,
        R. A. Kowalski, S. M. Larson, R. H. McNaught.  1.5-m reflector + CCD.
    H01 Magdalena Ridge Observatory, Socorro.  Observer W. H. Ryan.  2.4-m f/8.9
        reflector + CCD.
    
    Orbital elements:
    2012 BB62                                                Earth MOID = 0.0364 AU
    Epoch 2012 Mar. 14.0 TT = JDT 2456000.5                 MPC
    M  31.62338              (2000.0)            P               Q
    n   0.35867342     Peri.  126.92577     +0.25610909     -0.96155799
    a   1.9618686      Node   307.93871     +0.84214003     +0.27226019
    e   0.5277140      Incl.    7.21619     +0.47456117     +0.03578576
    P   2.75           H   26.0           G   0.15           U   8
    Residuals in seconds of arc
    120126 G96  0.2+  0.2+    120126 G96  0.2-  0.2-    120127 H01  0.0   0.0
    120126 G96  0.6-  0.4+    120126 G96  0.0   0.5-    120127 H01  0.0   0.0
    120126 G96  0.1+  0.1-    120126 G96  0.1+  0.1+    120127 H01  0.0   0.0
    120126 G96  0.4+  0.6-    120126 G96  0.0   0.6+    120127 H01  0.0   0.1-
    
    Ephemeris:
    2012 BB62                a,e,i = 1.96, 0.53, 7                   q = 0.9266
    Date    TT    R. A. (2000) Decl.     Delta      r     Elong.  Phase     V
    2011 12 28    21 35 29.7 +22 44 45   0.1268  0.9376    65.3   107.6    25.4
    ...
    2012 01 12    23 15 34.9 +55 57 56   0.04969 0.9856    91.1    86.0    22.5
    ...
    2012 01 20    07 14 25.6 +49 47 24   0.04646 1.0240   148.9    29.8    20.7
    ...
    2012 01 26    08 18 46.3 +25 12 46   0.07336 1.0574   173.2     6.3    20.9
    2012 01 27    08 23 09.4 +22 47 29   0.07893 1.0633   175.1     4.5    21.0
    2012 01 28    08 26 50.5 +20 41 07   0.08469 1.0693   176.4     3.3    21.1
    ...
    2012 02 03    08 40 36.4 +12 25 18   0.1222  1.1069   173.0     6.3    22.1
    ...
    2012 02 11    08 49 38.8 +07 16 58   0.1779  1.1606   166.7    11.3    23.3
    ...
    2012 02 26    09 00 13.0 +03 48 15   0.2986  1.2690   156.3    18.3    24.8
    
    A. U. Tomatic                (C) Copyright 2012 MPC           M.P.E.C. 2012-B76
    

    Read MPEC 2012-B75 Read MPEC 2012-B77


    MPEC number:

    Enter an MPEC number in one of the following forms:

    • 1997-B01 (the full form)
    • J97B01 (the packed version of the full form)
    • B01 (the abbreviated form)